Back to catalog

STARLINK-34862

AliveCommunicationsSSO
NORAD 65180·PAYLOAD·🇺🇸 United States

Launched Aug 14, 2025 from Vandenberg Space Force Base

Loading…

Next Passes (next 24 hours)

TLE

FreshSource: CelesTrak SupGP

Epoch: Sep 14, 2026, 23:08 UTC

1 65180C 25175G   26257.96437500  .00052131  00000+0  16183-2 0  2575
2 65180  97.2842 127.0393 0001716  93.1961 339.9407 15.33411149    11

Track STARLINK-34862 in real time with AllMySat

Download on the App Store